Weather History for International Falls, MN

Change the Weather History Date:

Saturday, January 26, 2013

  Actual Average Record
Temperature  
Mean Temperature -5 °F 5 °F  
Max Temperature 15 °F 16 °F 43 °F (2006)
Min Temperature -26 °F -7 °F -42 °F (1997)
Degree Days  
Heating Degree Days 70 60  
Month to date heating degree days 1575 1580  
Since 1 July heating degree days 5706 5755  
Cooling Degree Days 0 0  
Month to date cooling degree days 0 0  
Year to date cooling degree days 0 0  
Moisture  
Dew Point -8 °F    
Average Humidity 76    
Maximum Humidity 86    
Minimum Humidity 66    
Precipitation  
Precipitation T in 0.01 in 0.25 in (1914)
Month to date precipitation 1.50 0.54  
Year to date precipitation 1.50 0.54  
Snow  
Snow 0.10 in 0.40 in 4.80 in (1992)
Month to date snowfall 16.2 13.0  
Since 1 July snowfall 41.5 44.0  
Snow Depth 17.00 in    
Sea Level Pressure  
Sea Level Pressure 30.28 in    
Wind  
Wind Speed 4 mph (SE)    
Max Wind Speed 13 mph    
Max Gust Speed 18 mph    
Visibility 9 miles    
Events Snow    
T = Trace of Precipitation, MM = Missing Value Source: NWS Daily Summary

Daily Weather History Graph

Daily Weather History Graph

Search for Another Location

Airport:

Trip Planner

Search our weather history database for the weather conditions in past years. The results will help you decide how hot, cold, wet, or windy it might be!

Date:

Astronomy

Jan. 26, 2013 Rise Set
Actual Time 7:49 AM CST 5:03 PM CST
Civil Twilight 7:15 AM CST 5:37 PM CST
Nautical Twilight 6:37 AM CST 6:15 PM CST
Astronomical Twilight 6:00 AM CST 6:52 PM CST
Moon 5:02 PM CST (1/26) 7:05 AM CST (1/26)
Length of Visible Light 10h 21m
Length of Day
9h 13m
Full, 100% of the Moon is Illuminated
Jan 26
Full
Jan 26
Full
Feb 3
Last Quarter
Feb 10
New
Feb 17
First Quarter

Hourly Weather History & Observations

Time (CST) Temp. Windchill Dew Point Humidity Pressure Visibility Wind Dir Wind Speed Gust Speed Precip Events Conditions
12:55 AM -24.0 °F - -29.0 °F 77% 30.38 in 10.0 mi Calm Calm - N/A   Clear
1:55 AM -24.0 °F - -27.9 °F 82% 30.38 in 10.0 mi Calm Calm - N/A   Clear
2:55 AM -24.0 °F - -29.0 °F 77% 30.38 in 10.0 mi Calm Calm - N/A   Clear
3:55 AM -25.1 °F - -29.0 °F 82% 30.37 in 10.0 mi Calm Calm - N/A   Clear
4:55 AM -23.1 °F - -29.9 °F 70% 30.36 in 10.0 mi Calm Calm - N/A   Clear
5:55 AM -24.0 °F - -29.0 °F 77% 30.38 in 10.0 mi Calm Calm - N/A   Clear
6:55 AM -22.0 °F - -27.0 °F 77% 30.37 in 10.0 mi Calm Calm - N/A   Clear
7:55 AM -14.1 °F - -18.9 °F 79% 30.37 in 10.0 mi Calm Calm - N/A   Overcast
8:55 AM -11.0 °F -22.8 °F -16.1 °F 78% 30.38 in 10.0 mi ESE 4.6 mph - N/A   Overcast
9:10 AM -9.4 °F -20.9 °F -14.8 °F 77% 30.24 in 4.0 mi ESE 4.6 mph - N/A   Overcast
9:55 AM -6.0 °F -20.1 °F -11.0 °F 79% 30.37 in 8.0 mi ESE 6.9 mph - N/A   Overcast
10:55 AM -0.9 °F -11.0 °F -6.0 °F 79% 30.37 in 10.0 mi SE 4.6 mph - N/A   Overcast
11:55 AM 3.0 °F -9.3 °F -2.0 °F 80% 30.35 in 4.0 mi SE 6.9 mph - 0.00 in Snow Light Snow
12:55 PM 7.0 °F -5.7 °F 1.0 °F 77% 30.30 in 9.0 mi SE 8.1 mph - 0.00 in   Overcast
1:55 PM 9.0 °F -3.2 °F 1.0 °F 70% 30.27 in 10.0 mi SE 8.1 mph - 0.00 in   Overcast
2:55 PM 10.9 °F -1.8 °F 1.9 °F 67% 30.25 in 10.0 mi SE 9.2 mph - N/A   Overcast
3:55 PM 12.0 °F 0.5 °F 3.0 °F 67% 30.22 in 10.0 mi SSE 8.1 mph - N/A   Overcast
4:55 PM 12.9 °F 2.6 °F 3.0 °F 65% 30.19 in 10.0 mi SSE 6.9 mph - N/A   Mostly Cloudy
5:55 PM 10.9 °F 1.4 °F 3.0 °F 70% 30.20 in 10.0 mi SE 5.8 mph - N/A   Overcast
6:55 PM 12.9 °F 3.8 °F 5.0 °F 71% 30.19 in 10.0 mi SSE 5.8 mph - N/A   Overcast
7:55 PM 14.0 °F 8.2 °F 5.0 °F 67% 30.18 in 10.0 mi Variable 3.5 mph - N/A   Overcast
8:55 PM 14.0 °F 2.9 °F 5.0 °F 67% 30.17 in 10.0 mi South 8.1 mph - N/A   Overcast
9:55 PM 14.0 °F 3.9 °F 5.0 °F 67% 30.17 in 10.0 mi South 6.9 mph - N/A   Overcast
10:55 PM 15.1 °F 7.7 °F 6.1 °F 68% 30.17 in 10.0 mi South 4.6 mph - N/A   Overcast
11:55 PM 15.1 °F 9.4 °F 5.0 °F 64% 30.16 in 10.0 mi Variable 3.5 mph - 0.00 in   Overcast